Saint Louis, Missouri, United States (63101)
Lat: 38.63N, Lon: 90.2W
Wx Zone: MOZ064
Local Info
Past Weather Observations for Today

NOTE: This archive is for the closest National Weather Service station to Saint Louis. Information may differ from the station used for current weather conditions.

Click here for Long-term Archive

Time Weather Temperature Dewpoint Humidity Pressure Winds Precip Visibility
17:53
Partly Cloudy
Thunder Storms
82°F / 28°C 73°F / 23°C 74% 30.04 in
(1017 mb)
SSE 4.6 mph
(SSE 7 kph)
- 10SM
17:28
Partly Cloudy
Thunder Storms
82°F / 28°C 73°F / 23°C 74% 30.01 in
(1016 mb)
SSE 4.6 mph
(SSE 7 kph)
- 10SM
16:53
Partly Cloudy
Thunder Storms
86°F / 30°C 72°F / 22°C 62% 30.01 in
(1016 mb)
S 5.8 mph
(S 9 kph)
- 10SM
16:36
Clear
Thunder Storms
86°F / 30°C 72°F / 22°C 62% 30.01 in
(1016 mb)
SSE 4.6 mph
(SSE 7 kph)
- 10SM
15:53
Partly Cloudy
90°F / 32°C 72°F / 22°C 55% 30.01 in
(1016 mb)
SSE 8.1 mph
(SSE 13 kph)
- 10SM
14:53
Partly Cloudy
91°F / 33°C 72°F / 22°C 52% 30.01 in
(1016 mb)
SE 8.1 mph
(SE 13 kph)
- 10SM
13:53
Partly Cloudy
91°F / 33°C 72°F / 22°C 52% 30.04 in
(1017 mb)
SSE 9.2 mph
(SSE 15 kph)
- 10SM
12:53
Partly Cloudy
90°F / 32°C 72°F / 22°C 55% 30.04 in
(1017 mb)
SSE 4.6 mph
(SSE 7 kph)
- 10SM
11:53
Clear
88°F / 31°C 72°F / 22°C 59% 30.04 in
(1017 mb)
SSE 5.8 mph
(SSE 9 kph)
- 10SM
10:53
Clear
84°F / 29°C 72°F / 22°C 66% 30.06 in
(1018 mb)
SE 5.8 mph
(SE 9 kph)
- 10SM
09:53
Clear
82°F / 28°C 70°F / 21°C 66% 30.06 in
(1018 mb)
SW 5.8 mph
(SW 9 kph)
- 10SM
08:53
Clear
81°F / 27°C 70°F / 21°C 70% 30.09 in
(1019 mb)
SW 3.5 mph
(SW 6 kph)
- 10SM
07:53
Partly Cloudy
79°F / 26°C 70°F / 21°C 74% 30.09 in
(1019 mb)
SW 3.5 mph
(SW 6 kph)
- 10SM
06:53
Clear
75°F / 24°C 70°F / 21°C 83% 30.06 in
(1018 mb)
Variable 3.5 mph
(Variable 6 kph)
- 10SM
05:53
Partly Cloudy
73°F / 23°C 70°F / 21°C 89% 30.06 in
(1018 mb)
Calm - 10SM
04:53
Partly Cloudy
73°F / 23°C 70°F / 21°C 89% 30.06 in
(1018 mb)
SSW 3.5 mph
(SSW 6 kph)
- 10SM
03:53
Mostly Cloudy
72°F / 22°C 70°F / 21°C 94% 30.04 in
(1017 mb)
Calm - 10SM
02:53
Partly Cloudy
73°F / 23°C 70°F / 21°C 89% 30.04 in
(1017 mb)
SSE 3.5 mph
(SSE 6 kph)
- 10SM
01:53
Partly Cloudy
75°F / 24°C 72°F / 22°C 89% 30.04 in
(1017 mb)
Calm - 10SM
00:53
Partly Cloudy
75°F / 24°C 72°F / 22°C 89% 30.06 in
(1018 mb)
SSE 6.9 mph
(SSE 11 kph)
- 10SM
Time Weather Temperature Dewpoint Humidity Pressure Winds Precip Visibility


Weather for websites

WeatherForYou.com, LLC is not responsible for any damages or problems caused by this service. Current weather conditions are obtained from the closest station including government and personal stations which may have varying degrees of accuracy. Weather forecasts are derived from the NOAA NDFD. Like all things, this site belongs to Jesus Christ... He just trusts us to maintain it. If you have any questions or comments email webmaster@weatherforyou.com

Copyright © 2016, WeatherForYou.com LLC. All rights reserved.